ARIRANG-2 (KOMPSAT-2)

Last updated on Sun Apr 12 2026 00:02:34 GMT+0000 (Coordinated Universal Time)

1 29268U 06031A 26101.54642483 -.00000017 00000+0 52543-5 0 9995 2 29268 97.8316 289.2146 0013117 287.5074 131.6265 14.64617380 51720
UTC large
Height (km)
Speed (km/s)
/
Latitude / Longitude
Inclination (degrees)
Orbital Period (minutes)
Azimuth
Elevation
Range (km)
Doppler Factor

Next 0 passes for location: London (51.5072 / 0.1276)

Sorry there are no passes over London.
ARIRANG-2 (KOMPSAT-2)